Tracking 17828 objects as of 30-July-2016
HD Live streaming from Space Station
objects crossing your sky now

ATLAS 55E R/B

Track ATLAS 55E R/B now!
10-day predictions


NORAD ID: 16137
Int'l Code: 1985-093B
Perigee: 932.3 km
Apogee: 20,365.0 km
Inclination: 63.7 °
Period: 368.3 minutes
Semi major axis: 17019 km
RCS: 2.2883 m2 (large)
Launch date: October 9, 1985
Source: United States (US)
Launch site: AIR FORCE WESTERN TEST RANGE (AFWTR)

Note: This is a ROCKET BODY
Your satellite tracking list
Your tracking list is empty





NASA's NSSDC Master Catalog

Two Line Element Set (TLE):
1 16137U 85093B   16211.67531815 -.00000048 +00000-0 +00000-0 0  9993
2 16137 063.6621 089.9986 5708917 000.2235 326.0110 03.91027946439923
Source of the keplerian elements: AFSPC

N2YO: 848